CDT,Max TemperatureF,Mean TemperatureF,Min TemperatureF,Max Dew PointF,MeanDew PointF,Min DewpointF,Max Humidity, Mean Humidity, Min Humidity, Max Sea Level PressureIn, Mean Sea Level PressureIn, Min Sea Level PressureIn, Max VisibilityMiles, Mean VisibilityMiles, Min VisibilityMiles, Max Wind SpeedMPH, Mean Wind SpeedMPH, Max Gust SpeedMPH,PrecipitationIn, CloudCover, Events, WindDirDegrees
2013-4-1,42,33,23,30,19,13,85,58,30,30.39,30.30,30.17,10,9,3,23,10,26,T,2,Snow,14
2013-4-2,54,36,18,25,20,15,92,61,29,30.38,30.32,30.27,10,10,9,12,4,15,0.00,0,,152
2013-4-3,56,43,29,26,23,20,75,51,27,30.37,30.31,30.25,10,10,9,16,8,23,0.00,0,,175
2013-4-4,65,46,26,36,30,23,85,60,34,30.25,30.16,30.07,10,9,7,18,7,25,0.00,0,,305
2013-4-5,72,52,31,37,32,27,82,53,23,30.18,29.98,29.70,10,10,7,31,14,39,0.00,0,,147
2013-4-6,72,57,42,44,39,35,74,51,27,29.81,29.68,29.62,10,10,8,28,13,36,T,1,,266
2013-4-7,74,56,37,52,41,33,93,61,29,29.84,29.74,29.62,10,9,2,23,6,28,0.50,5,Rain,101
2013-4-8,69,57,44,61,53,45,100,92,84,29.70,29.67,29.65,10,5,0,20,7,24,T,6,Fog,154
2013-4-9,64,49,33,59,43,31,96,87,78,29.99,29.78,29.54,10,5,2,31,18,38,0.90,8,Rain-Snow-Thunderstorm,18
2013-4-10,36,34,31,34,32,29,96,93,89,30.00,29.92,29.85,10,5,1,26,13,31,0.17,8,Rain-Snow-Thunderstorm,332
2013-4-11,37,33,29,31,27,25,85,78,70,29.87,29.75,29.69,10,8,1,22,14,28,T,8,Snow,296
2013-4-12,46,39,31,27,26,24,78,62,45,30.07,29.92,29.79,10,10,10,24,14,31,0.00,5,,310
2013-4-13,59,41,23,40,32,22,88,68,47,30.08,29.89,29.62,10,10,7,23,10,29,0.07,5,Thunderstorm,144
2013-4-14,66,55,43,49,38,27,89,59,29,29.71,29.50,29.28,10,10,10,31,14,40,0.00,3,,236
2013-4-15,48,41,34,29,24,18,82,64,45,30.12,29.93,29.73,10,10,10,21,10,25,0.00,5,,322
2013-4-16,50,43,35,33,28,26,82,61,39,30.27,30.18,30.12,10,10,10,21,12,25,0.00,7,,49
2013-4-17,45,40,35,40,37,33,100,80,60,30.16,29.93,29.73,10,5,1,35,16,41,0.72,8,Rain-Thunderstorm,21
2013-4-18,37,34,31,34,28,25,96,80,64,29.99,29.85,29.75,10,6,1,33,22,43,0.11,7,Rain-Snow,328
2013-4-19,49,37,25,25,21,18,75,53,31,30.16,30.02,29.94,10,10,10,26,13,33,0.00,1,,315
2013-4-20,48,34,20,28,24,18,92,66,39,30.29,30.20,30.14,10,10,10,20,9,26,0.00,4,,104
2013-4-21,70,54,38,49,39,29,100,64,28,30.13,30.07,29.98,10,9,2,30,14,40,0.33,7,Rain,175
2013-4-22,53,43,32,49,42,28,100,91,82,30.25,30.07,29.96,10,6,2,30,15,36,1.19,8,Rain-Snow-Thunderstorm,42
2013-4-23,39,33,27,27,23,18,78,64,50,30.33,30.25,30.20,10,10,10,31,17,37,0.00,5,,356
2013-4-24,62,42,22,34,24,18,82,51,20,30.27,30.20,30.08,10,9,7,26,9,35,0.00,1,,270
2013-4-25,71,50,28,38,31,25,85,54,22,30.30,30.17,30.02,10,10,9,28,11,37,0.00,0,,193
2013-4-26,70,57,43,50,43,36,93,68,42,30.20,30.09,30.02,10,10,8,21,11,25,0.00,1,,184
2013-4-27,71,55,38,50,45,37,100,70,40,30.21,30.12,29.96,9,5,1,16,5,18,0.00,4,,181
2013-4-28,82,63,44,54,48,43,93,62,30,29.96,29.81,29.68,10,9,4,25,10,32,0.00,0,,180
2013-4-29,84,69,53,57,51,44,86,59,31,29.80,29.65,29.49,10,10,10,18,7,24,0.00,0,,95
2013-4-30,72,64,56,55,48,37,58,49,40,29.89,29.67,29.47,10,10,10,32,15,40,0.03,4,Rain-Thunderstorm,10